EW9479 Weather Reports


Display with metric or nautical units.
time (UTC)temp
F
wind
direction
speed
MPH
gust
MPH
rain 1hr
in
rain 24hr
in
rain mn
in
humidity
%
barometer
mb
20260506094546 53 316 2.0 6.0 0.00 0.87 0.26 94 1010.2
20260506093101 53 316 3.0 4.0 0.01 0.87 0.26 94 1010.6
20260506091540 53 0 2.0 6.0 0.05 0.87 0.26 93 1009.8
20260506090040 54 47 5.0 11.0 0.10 0.87 0.26 92 1009.8
20260506084537 55 333 3.0 10.0 0.10 0.87 0.26 93 1009.9
20260506083044 56 342 4.0 12.0 0.09 0.86 0.25 92 1009.6
20260506081540 58 33 6.0 10.0 0.06 0.82 0.21 91 1009.4
20260506073037 66 233 2.0 13.0 0.16 0.77 0.16 92 1008.6
20260506071544 67 252 7.0 21.0 0.15 0.76 0.15 88 1008.5
20260506061552 71 193 7.0 15.0 0.00 0.61 0.00 82 1008.2
20260506044545 70 205 6.0 11.0 0.00 0.61 0.61 81 1008.5
20260506043037 69 198 4.0 15.0 0.00 0.61 0.61 81 1008.6
20260506041554 69 186 7.0 11.0 0.00 0.61 0.61 81 1009.0
20260506040043 69 202 4.0 12.0 0.00 0.61 0.61 81 1008.9
20260506034539 69 184 5.0 12.0 0.00 0.61 0.61 81 1008.7
20260506033050 69 203 6.0 11.0 0.00 0.61 0.61 81 1009.0
20260506031541 69 220 5.0 9.0 0.00 0.61 0.61 81 1009.4
20260506030043 69 203 6.0 8.0 0.00 0.61 0.61 82 1009.5
20260506024543 69 214 5.0 10.0 0.00 0.61 0.61 82 1009.4
20260506023050 69 168 4.0 12.0 0.00 0.61 0.61 82 1009.2
20260506021539 68 122 3.0 9.0 0.00 0.61 0.61 83 1009.1
20260506020113 68 186 3.0 9.0 0.00 0.61 0.61 83 1009.2
20260506014545 68 226 4.0 7.0 0.00 0.61 0.61 83 1009.0
20260506013043 68 210 2.0 7.0 0.00 0.61 0.61 83 1008.9
20260506011548 68 214 3.0 6.0 0.00 0.61 0.61 83 1008.7
20260506010040 68 184 2.0 9.0 0.00 0.61 0.61 83 1009.0
20260506004542 68 217 3.0 10.0 0.00 0.61 0.61 83 1008.9
20260506003047 68 205 2.0 6.0 0.00 0.61 0.61 83 1008.6
20260506001549 68 202 2.0 8.0 0.00 0.61 0.61 84 1008.6
20260506000056 68 198 5.0 10.0 0.00 0.61 0.61 84 1008.7
20260505234544 68 162 3.0 8.0 0.00 0.61 0.61 84 1008.8
20260505233048 67 181 4.0 9.0 0.00 0.61 0.61 84 1008.9
20260505231546 67 206 6.0 9.0 0.00 0.61 0.61 84 1009.0
20260505230049 67 194 2.0 9.0 0.00 0.61 0.61 85 1008.7
20260505224548 67 127 2.0 6.0 0.00 0.61 0.61 85 1008.7
20260505223044 66 206 1.0 5.0 0.00 0.61 0.61 86 1009.0
20260505221550 65 188 2.0 7.0 0.00 0.61 0.61 86 1009.1
20260505220049 65 205 2.0 5.0 0.00 0.61 0.61 86 1009.4
20260505214545 65 237 3.0 7.0 0.01 0.61 0.61 86 1009.6
20260505213044 65 150 3.0 8.0 0.01 0.61 0.61 87 1009.6
20260505211607 65 203 5.0 10.0 0.01 0.61 0.61 86 1009.8
20260505210046 66 188 3.0 11.0 0.01 0.61 0.61 84 1009.9
20260505204556 66 211 3.0 10.0 0.00 0.60 0.60 83 1009.8
20260505203039 66 197 4.0 8.0 0.00 0.60 0.60 83 1009.9
20260505201540 66 221 5.0 10.0 0.00 0.60 0.60 83 1010.0
20260505200045 66 200 3.0 12.0 0.00 0.60 0.60 84 1010.2
20260505194537 66 206 3.0 10.0 0.00 0.60 0.60 85 1010.1
20260505193044 66 212 4.0 9.0 0.00 0.60 0.60 86 1010.1
20260505191543 66 182 3.0 6.0 0.00 0.60 0.60 86 1010.4
20260505190040 65 228 2.0 5.0 0.00 0.60 0.60 88 1010.6
20260505184542 64 148 2.0 7.0 0.00 0.60 0.60 89 1010.8
20260505183044 64 170 2.0 8.0 0.00 0.60 0.60 89 1010.9
20260505181604 63 208 2.0 9.0 0.01 0.60 0.60 89 1011.0
20260505180052 63 181 4.0 8.0 0.06 0.60 0.60 90 1011.0
20260505174544 62 238 4.0 10.0 0.12 0.60 0.60 90 1011.1
20260505173038 61 206 3.0 11.0 0.18 0.60 0.60 91 1011.3
20260505171541 61 143 7.0 11.0 0.27 0.58 0.58 91 1011.8
20260505170037 60 174 9.0 14.0 0.31 0.54 0.54 91 1012.0
20260505164537 60 136 1.0 10.0 0.30 0.48 0.48 91 1011.6
20260505163040 60 189 1.0 5.0 0.28 0.41 0.41 91 1013.0
20260505161538 60 162 6.0 9.0 0.21 0.31 0.31 90 1013.0
20260505153046 59 205 3.0 8.0 0.13 0.13 0.13 89 1011.8
20260505151541 59 153 3.0 11.0 0.10 0.10 0.10 88 1012.1
20260505124536 60 165 2.0 8.0 0.00 0.00 0.00 77 1012.6
20260505123051 60 190 3.0 6.0 0.00 0.00 0.00 76 1012.7
20260505121540 60 186 3.0 7.0 0.00 0.00 0.00 76 1012.5
20260505120059 60 205 4.0 7.0 0.00 0.00 0.00 77 1012.2
20260505114538 59 140 1.0 4.0 0.00 0.00 0.00 77 1011.9
20260505113048 59 218 1.0 3.0 0.00 0.00 0.00 78 1011.6
20260505111543 59 0 0.0 3.0 0.00 0.00 0.00 78 1011.7
20260505110105 58 118 0.0 1.0 0.00 0.00 0.00 79 1011.4
20260505101537 58 0 0.0 1.0 0.00 0.00 0.00 78 1011.2
20260505100038 59 179 0.0 3.0 0.00 0.00 0.00 76 1011.1